Regional Weather Roundup
Issued by NWS

Home | Current Version | Previous Version | Graphics & Text | Print | Product List | Glossary On
Versions: 1 2 3 4 5 6 7 8 9 10 11 12 13 14 15 16 17 18 19 20 21 22 23 24 25 26 27 28 29 30 31 32 33 34 35 36 37 38 39 40 41 42 43 44 45 46 47 48 49 50
000
ASUS45 KTFX 010319
RWRMT
MONTANA HOURLY WEATHER ROUNDUP
NATIONAL WEATHER SERVICE GREAT FALLS MT
919 PM MDT THU JUL 31 2014

NOTE: "FAIR" INDICATES FEW OR NO CLOUDS BELOW 12000 FEET WITH NO
SIGNIFICANT WEATHER AND/OR OBSTRUCTIONS TO VISIBILITY.

* THESE STATIONS ARE NOT UNDER NWS QUALITY CONTROL. THEY DO NOT
   REPORT WEATHER SUCH AS PRECIPITATION OR FOG.

MTZ001>007-043-010400-
WEST OF THE DIVIDE
CITY           SKY/WX    TMP DP  RH WIND       PRES   REMARKS
KALISPELL      CLEAR     75  54  48 CALM      30.02S
MISSOULA       CLOUDY    86  41  20 SE9       30.06R
BUTTE          CLOUDY    75  37  25 W7        30.25S
MULLAN PASS    MOCLDY    70  34  27 NW5       30.28R
* ESSEX        N/A      N/A N/A N/A N/A        N/A
* LINCOLN      N/A       66  49  54 SW4G14     N/A
* LOOKOUT PASS N/A       74  45  36 N1         N/A
* POLSON       N/A       78  39  25 E1         N/A
* RONAN APT    PTCLDY    82  54  38 N/A        N/A
* SEELEY LAKE  N/A       82  39  22 S2G14      N/A
* THOMP F APT  PTCLDY    55  50  83 NE4G25     N/A
$$

MTZ008-052>055-010400-
SOUTHWEST MONTANA
CITY           SKY/WX    TMP DP  RH WIND       PRES   REMARKS
BOZEMAN        MOCLDY    73  39  29 E7        30.16R
DILLON         MOCLDY    72  45  38 NE6       30.19R
W YELLOWSTONE  CLOUDY    64  43  47 E6        30.35R
* THREE FORKS  MOCLDY    79  55  44 N/A        N/A
* BOULDER HILL N/A       72  38  29 VRB10      N/A
* MONIDA PASS  N/A       58  48  70 SE11G16    N/A
* RAYNOLDS PAS N/A       61  41  48 SE4        N/A
* WHITEHALL    N/A       78  44  30 N3         N/A
* WISE RIVER   N/A       74  35  24 SE9G22     N/A
$$

MTZ009>010-012-014-046-048-049-054-010400-
EAST SLOPES AND CENTRAL MONTANA
CITY           SKY/WX    TMP DP  RH WIND       PRES   REMARKS
CUT BANK       PTCLDY    73  48  41 N9        30.12R
GREAT FALLS    PTCLDY    77  43  30 NW5       30.11R
HELENA         MOCLDY    81  37  21 CALM      30.13R
MALMSTROM AFB  PTCLDY    81  39  22 NW6       30.12R
* CONRAD       CLEAR     82  55  40 N/A        N/A   HI  81
* DEARBORN     N/A       78  51  39 SW1        N/A
* EAST GLACIER N/A       72  52  49 N2         N/A
* MONARCH      N/A       71  47  43 N/A        N/A
* PENDROY      N/A       76  51  42 NE2        N/A
* ROGERS PASS  N/A       64  41  43 NW2        N/A
* SAINT MARY   N/A       70  59  68 S2G8       N/A
* SWEET GRASS  N/A       79  53  41 NE5        N/A
* WHITE SULPH  N/A       71  37  29 NE5G11     N/A
$$

MTZ011-013-016-021-035-040-045-047-050-051-010400-
NORTH CENTRAL MONTANA
CITY           SKY/WX    TMP DP  RH WIND       PRES   REMARKS
HAVRE          PTCLDY    82  46  28 CALM      30.01R
LEWISTOWN      MOCLDY    79  43  28 S18       30.14R
* FORT BENTON  PTCLDY    82  43  25 W5        30.05R
* CHESTER      N/A       81  44  27 NE3        N/A
* DENTON       N/A       83  43  24 NW5G11     N/A
* GEYSER       N/A       78  42  28 SW4        N/A
* JUDITH GAP   N/A       71  51  49 NW13G18    N/A
* LOMA         N/A       87  43  21 NW4        N/A
$$

MTZ017>020-022>027-061-062-010400-
NORTHEAST MONTANA
CITY           SKY/WX    TMP DP  RH WIND       PRES   REMARKS
GLASGOW        CLOUDY    79  45  30 N5        29.98R
GLENDIVE       MOCLDY    82  39  22 NE3       30.00R
JORDAN         MOCLDY    84  41  22 N21G28    30.02R
SIDNEY         PTCLDY    77  55  47 E5        30.00R
WOLF POINT     MOCLDY    82  52  35 NE8       29.96R
* BEAVER HILL  N/A       79  46  31 N/A        N/A
* CIRCLE       N/A       85  42  22 NW3        N/A
* LINDSAY DVD  N/A       79  42  27 NE6        N/A
* NAVAJO       N/A       74  59  60 E8         N/A
$$

MTZ028>042-056>058-010400-
SOUTHCENTRAL AND SOUTHEAST MONTANA
CITY           SKY/WX    TMP DP  RH WIND       PRES   REMARKS
BAKER          PTCLDY    72  45  38 VRB7      30.04R
BILLINGS       PTCLDY    82  43  25 N7        30.07R
LIVINGSTON     MOCLDY    75  41  30 SW9       30.16R
MILES CITY     PTCLDY    84  32  15 S6        29.98S
* LAUREL APT   PTCLDY    79  41  26 N/A        N/A
* ROUNDUP APT  PTCLDY    81  37  21 N/A        N/A
* ALZADA       N/A       70  45  41 SE4        N/A
* HYSHAM       N/A       83  40  22 NE2        N/A
* LAME DEER    N/A       78  38  24 N5         N/A
* REED POINT   N/A       75  48  39 W1         N/A
* ROSCOE HILL  N/A       71  41  34 S13G24     N/A
$$

REGIONAL REPORTS...DAKOTAS
CITY           SKY/WX    TMP DP  RH WIND       PRES   REMARKS
WILLISTON      CLEAR     75  57  54 E8        30.01R
DICKINSON      CLEAR     68  57  68 SE9       30.03R
CROSBY         N/A       64  64 100 E7        30.05R
TIOGA          CLEAR     61  61 100 E7        30.09R
WATFORD CITY   CLEAR     70  59  68 E7        30.01R
BISMARCK       FAIR      70  55  59 CALM      30.03R
GRAND FORKS    FAIR      70  64  81 CALM      29.98S
FARGO          CLEAR     72  61  68 S3        29.99S
BUFFALO SD     MOCLDY    72  48  43 SE7       30.01R
RAPID CITY     TSTM      70  54  57 NE20G31   30.15R
$$

REGIONAL REPORTS...WYOMING/IDAHO/WASHINGTON
CITY           SKY/WX    TMP DP  RH WIND       PRES   REMARKS
GILLETTE       CLEAR     64  46  52 S7        30.12S
SHERIDAN       PTCLDY    73  45  37 SE5       30.09S
CODY           MOCLDY    72  39  30 CALM      30.19S
YELLOWSTONE LA CLOUDY    57  43  60 VRB6      30.46R
SALMON         CLOUDY    79  45  30 CALM      30.11R
MULLAN PASS    MOCLDY    70  34  27 NW5       30.28S
SAND POINT     PTCLDY    72  52  49 W3        29.97S
SPOKANE        MOCLDY    91  36  14 SW13      29.99S
$$

REGIONAL REPORTS...ALBERTA
CITY           SKY/WX    TMP DP  RH WIND       PRES   REMARKS
CALGARY        MOCLDY    68 N/A N/A NW12      30.11R
LETHBRIDGE     PTCLDY    73  63  71 S3        30.08R
MEDICINE HAT   MOCLDY    81  52  37 NE7       30.03R
EDMONTON       MOCLDY    68  61  78 N6        30.12R
WATERTON GATE  N/A       66  59  78 S1         N/A
CARDSTON       N/A       72  63  73 S3         N/A
MILK RIVER     N/A       68  57  68 N5         N/A
$$

REGIONAL REPORTS...SASKATCHEWAN
CITY           SKY/WX    TMP DP  RH WIND       PRES   REMARKS
SWIFT CURRENT  CLOUDY    73  63  71 E9        30.03R
REGINA         FAIR      73  61  66 E8        30.05R
VAL MARIE      N/A       75  54  48 W10        N/A
ASSINIBOIA     N/A       70  63  79 E8         N/A
CORONACH       N/A       73  61  66 E6         N/A

$$



USA.gov is the U.S. government's official web portal to all federal, state and local government web resources and services.